Find Starlink 37823

NORAD ID: 69427 Int'l Des: 2026-126 Owner: SPXS Country: US Constellation: starlink operational
LEOCIRCULARRETROGRADE

当前视图

正在加载3D地球...

About Starlink 37823

Starlink 37823 (NORAD 69427) is a starlink constellation satellite launched Jun 7, 2026 by SPXS of US. It operates in LEO, CIRCULAR, RETROGRADE orbit with a mass of 575.00 kg.

即将过境

Passes for default location (London). Set your location on the main map for personalized predictions.

高度历史

Loading altitude history...

两行轨道根数

1 69427U 26126H 26206.58335648 -.02371011 00000-0 -37618-1 0 9996
2 69427 97.2848 68.4362 0002222 84.6936 112.3332 15.56928435 6000
Epoch: Jul 25, 2026 • Age: 19 hours

当前状态

高度 430.0 km
远地点 / 近地点 N/A
速度 7.65 km/s
星下点 -55.22°S, 0.78°E
发射日期 Jun 7, 2026
运行时间 0.1 years
类型 internet

技术详情

分类 Payload
质量 575.00 kg
干质量 530.00 kg
总质量 575.00 kg
长度 0.30 m
直径 4.10 m
跨度 29.00 m
形状 Box + pan
制造商 SPXS
平台类型 Starlink V2MO
阶段状态 In Orbit
所有者/国家 SPXS/US

Most Searched